FBY757S LEBB-LESO

Flight info

Callsign FBY757S
Flight time 0h 33m
Altitude 8000
Route VFR
Aircraft DA40/L-SBDGRY/S

Departure

Time 2026-05-08 20:17
Airport Bilbao Airport (LEBB)

Arrival

Time 2026-05-08 20:50
Airport San Sebastián Airport (LESO)
Time Latitude Longitude Altitude Speed Heading
2026-05-08 20:03 43.30085 -2.93270 126 ft 0 kts 276°
2026-05-08 20:10 43.30099 -2.93261 126 ft 5 kts 115°
2026-05-08 20:11 43.30098 -2.93229 126 ft 4 kts 316°
2026-05-08 20:11 43.30101 -2.93256 126 ft 0 kts 276°
2026-05-08 20:12 43.30123 -2.93378 123 ft 21 kts 281°
2026-05-08 20:13 43.30187 -2.93610 125 ft 30 kts 279°
2026-05-08 20:13 43.30248 -2.93704 126 ft 0 kts
2026-05-08 20:15 43.30299 -2.93691 124 ft 19 kts 30°
2026-05-08 20:15 43.30325 -2.93599 126 ft 1 kts 97°
2026-05-08 20:16 43.30322 -2.93561 126 ft 11 kts 95°
2026-05-08 20:16 43.30289 -2.93164 126 ft 68 kts 96°
2026-05-08 20:16 43.30217 -2.92498 325 ft 71 kts 96°
2026-05-08 20:16 43.30154 -2.91818 517 ft 74 kts 94°
2026-05-08 20:17 43.30261 -2.91143 739 ft 76 kts 56°
2026-05-08 20:17 43.30500 -2.90557 1030 ft 64 kts 54°
2026-05-08 20:17 43.30654 -2.89984 1227 ft 66 kts 70°
2026-05-08 20:17 43.30803 -2.89372 1396 ft 72 kts 69°
2026-05-08 20:18 43.30977 -2.88657 1526 ft 85 kts 70°
2026-05-08 20:18 43.31106 -2.88112 1618 ft 93 kts 70°
2026-05-08 20:18 43.31314 -2.87240 1746 ft 99 kts 70°
2026-05-08 20:18 43.31534 -2.86386 1982 ft 91 kts 70°
2026-05-08 20:19 43.31741 -2.85600 2222 ft 84 kts 70°
2026-05-08 20:19 43.31913 -2.84869 2466 ft 77 kts 69°
2026-05-08 20:19 43.32059 -2.84168 2670 ft 76 kts 70°
2026-05-08 20:19 43.32195 -2.83480 2870 ft 74 kts 71°
2026-05-08 20:20 43.32344 -2.82821 3067 ft 70 kts 70°
2026-05-08 20:20 43.32510 -2.82209 3262 ft 66 kts 71°
2026-05-08 20:20 43.32686 -2.81671 3406 ft 62 kts 69°
2026-05-08 20:20 43.32888 -2.81130 3499 ft 64 kts 71°
2026-05-08 20:21 43.33093 -2.80601 3571 ft 68 kts 70°
2026-05-08 20:21 43.33339 -2.79905 3563 ft 91 kts 71°
2026-05-08 20:21 43.33612 -2.79112 3694 ft 93 kts 70°
2026-05-08 20:21 43.33891 -2.78299 3823 ft 95 kts 70°
2026-05-08 20:22 43.34174 -2.77470 3950 ft 97 kts 70°
2026-05-08 20:22 43.34461 -2.76626 4076 ft 98 kts 70°
2026-05-08 20:22 43.34752 -2.75771 4202 ft 99 kts 70°
2026-05-08 20:22 43.35044 -2.74911 4322 ft 99 kts 70°
2026-05-08 20:23 43.35334 -2.74064 4471 ft 96 kts 70°
2026-05-08 20:23 43.35618 -2.73240 4646 ft 95 kts 70°
2026-05-08 20:23 43.35899 -2.72424 4817 ft 93 kts 70°
2026-05-08 20:23 43.36171 -2.71636 4989 ft 89 kts 70°
2026-05-08 20:24 43.36435 -2.70881 5159 ft 86 kts 70°
2026-05-08 20:24 43.36690 -2.70156 5331 ft 82 kts 70°
2026-05-08 20:24 43.36935 -2.69468 5502 ft 78 kts 70°
2026-05-08 20:24 43.37164 -2.68819 5664 ft 73 kts 70°
2026-05-08 20:25 43.37376 -2.68229 5817 ft 66 kts 70°
2026-05-08 20:25 43.37586 -2.67644 5848 ft 75 kts 70°
2026-05-08 20:25 43.37827 -2.66942 5866 ft 87 kts 70°
2026-05-08 20:25 43.38095 -2.66134 5869 ft 98 kts 70°
2026-05-08 20:26 43.38372 -2.65291 5970 ft 94 kts 70°
2026-05-08 20:26 43.38594 -2.64470 6088 ft 89 kts 83°
2026-05-08 20:26 43.38591 -2.63654 6209 ft 83 kts 98°
2026-05-08 20:26 43.38539 -2.62881 6328 ft 79 kts 100°
2026-05-08 20:27 43.38486 -2.62149 6445 ft 76 kts 100°
2026-05-08 20:27 43.38438 -2.61441 6570 ft 72 kts 100°
2026-05-08 20:27 43.38394 -2.60772 6693 ft 69 kts 100°
2026-05-08 20:27 43.38355 -2.60134 6811 ft 65 kts 100°
2026-05-08 20:28 43.38315 -2.59519 6886 ft 64 kts 100°
2026-05-08 20:28 43.38281 -2.58919 6963 ft 64 kts 101°
2026-05-08 20:28 43.38243 -2.58287 7044 ft 69 kts 100°
2026-05-08 20:28 43.38202 -2.57635 7119 ft 70 kts 100°
2026-05-08 20:29 43.38159 -2.56960 7197 ft 72 kts 100°
2026-05-08 20:29 43.38113 -2.56260 7277 ft 76 kts 100°
2026-05-08 20:29 43.38061 -2.55549 7399 ft 74 kts 100°
2026-05-08 20:29 43.38011 -2.54846 7515 ft 73 kts 100°
2026-05-08 20:30 43.37962 -2.54158 7644 ft 71 kts 100°
2026-05-08 20:30 43.37916 -2.53493 7767 ft 68 kts 101°
2026-05-08 20:30 43.37881 -2.52865 7876 ft 64 kts 101°
2026-05-08 20:30 43.37843 -2.52204 7900 ft 76 kts 100°
2026-05-08 20:31 43.37789 -2.51425 7924 ft 87 kts 100°
2026-05-08 20:31 43.37725 -2.50568 7984 ft 93 kts 100°
2026-05-08 20:31 43.37658 -2.49675 8058 ft 95 kts 100°
2026-05-08 20:31 43.37589 -2.48766 8139 ft 96 kts 100°
2026-05-08 20:32 43.37519 -2.47850 8222 ft 97 kts 100°
2026-05-08 20:32 43.37444 -2.46946 8303 ft 97 kts 100°
2026-05-08 20:32 43.37368 -2.46027 8386 ft 97 kts 100°
2026-05-08 20:32 43.37292 -2.45111 8470 ft 96 kts 100°
2026-05-08 20:33 43.37215 -2.44183 8489 ft 101 kts 100°
2026-05-08 20:33 43.37133 -2.43213 8489 ft 104 kts 101°
2026-05-08 20:33 43.37047 -2.42222 8490 ft 105 kts 100°
2026-05-08 20:33 43.36961 -2.41226 8490 ft 105 kts 100°
2026-05-08 20:34 43.36877 -2.40235 8489 ft 105 kts 100°
2026-05-08 20:34 43.36791 -2.39233 8490 ft 105 kts 101°
2026-05-08 20:34 43.36663 -2.37627 8324 ft 78 kts 103°
2026-05-08 20:35 43.36565 -2.36929 8190 ft 72 kts 109°
2026-05-08 20:35 43.36447 -2.36227 8113 ft 75 kts 108°
2026-05-08 20:35 43.36374 -2.35506 8156 ft 72 kts 100°
2026-05-08 20:35 43.36336 -2.34878 8261 ft 59 kts 100°
2026-05-08 20:36 43.36309 -2.34321 8253 ft 60 kts 100°
2026-05-08 20:36 43.36283 -2.33772 8281 ft 61 kts 101°
2026-05-08 20:36 43.36256 -2.33225 8371 ft 60 kts 99°
2026-05-08 20:36 43.36285 -2.32636 8445 ft 70 kts 88°
2026-05-08 20:37 43.36342 -2.31884 8487 ft 86 kts 98°
2026-05-08 20:37 43.36276 -2.30992 8499 ft 101 kts 100°
2026-05-08 20:37 43.36189 -2.29980 8501 ft 112 kts 100°
2026-05-08 20:37 43.36092 -2.28886 8498 ft 119 kts 101°
2026-05-08 20:38 43.35985 -2.27738 8500 ft 123 kts 101°
2026-05-08 20:38 43.35870 -2.26561 8499 ft 125 kts 101°
2026-05-08 20:38 43.35753 -2.25362 8500 ft 127 kts 101°
2026-05-08 20:38 43.35634 -2.24155 8500 ft 128 kts 101°
2026-05-08 20:39 43.35515 -2.22940 8499 ft 129 kts 101°
2026-05-08 20:39 43.35395 -2.21719 8499 ft 129 kts 101°
2026-05-08 20:39 43.35274 -2.20494 8499 ft 130 kts 101°
2026-05-08 20:39 43.35151 -2.19253 8433 ft 135 kts 101°
2026-05-08 20:40 43.35020 -2.17951 8310 ft 140 kts 101°
2026-05-08 20:40 43.34886 -2.16646 8185 ft 143 kts 101°
2026-05-08 20:40 43.34746 -2.15291 8065 ft 144 kts 101°
2026-05-08 20:40 43.34605 -2.13920 7940 ft 145 kts 101°
2026-05-08 20:41 43.34462 -2.12546 7814 ft 145 kts 101°
2026-05-08 20:41 43.34318 -2.11172 7661 ft 146 kts 101°
2026-05-08 20:41 43.34176 -2.09829 7409 ft 132 kts 102°
2026-05-08 20:41 43.34059 -2.08659 7153 ft 117 kts 101°
2026-05-08 20:42 43.33959 -2.07603 6899 ft 108 kts 101°
2026-05-08 20:42 43.33865 -2.06593 6653 ft 105 kts 101°
2026-05-08 20:42 43.33772 -2.05617 6402 ft 104 kts 101°
2026-05-08 20:42 43.33679 -2.04634 6152 ft 103 kts 101°
2026-05-08 20:43 43.33585 -2.03656 5903 ft 103 kts 101°
2026-05-08 20:43 43.33491 -2.02684 5653 ft 103 kts 101°
2026-05-08 20:43 43.33398 -2.01715 5403 ft 102 kts 101°
2026-05-08 20:43 43.33304 -2.00749 5154 ft 102 kts 101°
2026-05-08 20:44 43.33210 -1.99781 4904 ft 102 kts 101°
2026-05-08 20:44 43.33116 -1.98818 4655 ft 102 kts 101°
2026-05-08 20:44 43.33020 -1.97858 4405 ft 101 kts 101°
2026-05-08 20:44 43.32923 -1.96899 4155 ft 101 kts 101°
2026-05-08 20:45 43.32826 -1.95941 3906 ft 101 kts 101°
2026-05-08 20:45 43.32763 -1.95306 3743 ft 102 kts 101°
2026-05-08 20:45 43.32632 -1.94006 3411 ft 103 kts 101°
2026-05-08 20:45 43.32534 -1.93028 3161 ft 104 kts 101°
2026-05-08 20:46 43.32437 -1.92053 2909 ft 102 kts 101°
2026-05-08 20:46 43.32339 -1.91096 2662 ft 101 kts 101°
2026-05-08 20:46 43.32270 -1.90144 2429 ft 99 kts 95°
2026-05-08 20:46 43.32279 -1.89237 2277 ft 93 kts 87°
2026-05-08 20:47 43.32375 -1.88378 2105 ft 90 kts 81°
2026-05-08 20:47 43.32528 -1.87544 1902 ft 90 kts 75°
2026-05-08 20:47 43.32731 -1.86745 1724 ft 90 kts 72°
2026-05-08 20:47 43.32937 -1.85938 1531 ft 89 kts 74°
2026-05-08 20:48 43.33088 -1.85123 1351 ft 86 kts 78°
2026-05-08 20:48 43.33220 -1.84339 1203 ft 82 kts 77°
2026-05-08 20:48 43.33331 -1.83637 1087 ft 73 kts 78°
2026-05-08 20:48 43.33444 -1.82957 936 ft 73 kts 78°
2026-05-08 20:49 43.33577 -1.82286 767 ft 74 kts 73°
2026-05-08 20:49 43.33772 -1.81635 648 ft 74 kts 65°
2026-05-08 20:49 43.34037 -1.81037 543 ft 75 kts 56°
2026-05-08 20:49 43.34372 -1.80476 387 ft 80 kts 43°
2026-05-08 20:50 43.34812 -1.79981 188 ft 81 kts 40°
2026-05-08 20:50 43.35252 -1.79499 28 ft 76 kts 38°
2026-05-08 20:50 43.35603 -1.79110 12 ft 49 kts 38°
2026-05-08 20:50 43.35750 -1.78936 12 ft 17 kts 55°
2026-05-08 20:51 43.35776 -1.78922 13 ft 5 kts 258°
2026-05-08 20:51 43.35680 -1.79029 12 ft 32 kts 217°
2026-05-08 20:51 43.35506 -1.79237 12 ft 20 kts 278°
2026-05-08 20:51 43.35555 -1.79334 10 ft 10 kts 254°
2026-05-08 20:52 43.35503 -1.79404 11 ft 7 kts 184°
2026-05-08 20:52 43.35499 -1.79400 11 ft 0 kts 126°